Weather in Loreto

Mexico     26°00′14″N   111°20′35″W
temp.,
°C
wind,
m/s
gust,
m/s
humid.,
%
clouds,
%
prec.,
mm/h
press.,
hPa
HPBL,
m
13 may, thu
thu1300:00+26nnw2253100 0.0 101314
03:00+27wsw115186 0.0 101211
06:00+27n1153100 0.0 101214
09:00+27n2253100 0.0 101452
12:00+25nne346196 0.0 1014179
15:00+25nnw235550 0.0 1012153
18:00+27nnw014381 0.0 1010193
21:00+27nw225221 0.0 101018
14 may, fri
fri1400:00+28wsw335153 0.0 101117
03:00+27wnw2352100 0.0 101016
06:00+27w125569 0.0 101118
09:00+26sse126468 0.0 101365
12:00+27se456266 0.0 1012292
15:00+29sse585338 0.0 1010273
18:00+31wsw9114025 0.0 1009196
21:00+27wsw685289 0.0 101081
15 may, sat
sat1500:00+25wsw6743100 0.0 101198
03:00+24w674080 0.0 1010112
06:00+24w564317 0.0 1011102
09:00+25w45405 0.0 1012113
12:00+28ese23335 0.0 1012147
15:00+28sse35401 0.0 1010169
18:00+29wsw553741 0.0 100998
21:00+25wsw68441 0.0 1010123
16 may, sun
sun1600:00+24w564710 0.0 1011131
03:00+24wnw3342100 0.0 101175
06:00+24wnw124284 0.0 101140
09:00+25sw1147100 0.0 101340
12:00+25ese334185 0.0 1013210
15:00+26ese5547100 0.0 1012299
18:00+26se4453100 0.0 1011179
21:00+27w5547100 0.0 101156
17 may, mon
mon1700:00+25wnw3350100 0.0 101241
03:00+25w3347100 0.0 101030
06:00+25wnw224374 0.0 101121
09:00+25n114643 0.0 101350
12:00+25e434656 0.0 1012240
15:00+25e55580 0.0 1011362
18:00+25ese43600 0.0 1010257
21:00+25nne11640 0.0 101130